Weather in Veshkayma

Russia / Ulyanovsk Oblast     54°03′47″N   47°01′12″E
temp.,
°C
wind,
m/s
gust,
m/s
humid.,
%
clouds,
%
prec.,
mm/h
press.,
hPa
HPBL,
m
23 april, fri
fri2301:00+6sw11825 0.0 102410
04:00+5sse22835 0.0 102410
07:00+6se11835 0.0 102411
10:00+12se33665 0.0 1024586
13:00+15se3351100 0.1 10221893
16:00+14ese3353100 0.3 1021961
19:00+12se3766100 0.1 1020254
22:00+9ese3478100 0.1 101982
24 april, sat
sat2401:00+8se1180100 0.0 101811
04:00+7e1183100 0.0 101610
07:00+8e1182100 0.0 101421
10:00+11sse2268100 0.0 1013568
13:00+14sse235150 0.1 10101616
16:00+12sw566598 1.3 1009698
19:00+11ssw4873100 2.5 1007441
22:00+9ssw51183100 3.1 1006416
25 april, sun
sun2501:00+5w71286100 2.0 1007931
04:00+5wsw61181100 2.1 10071148
07:00+3wsw7127835 0.0 1008845
10:00+4sw9127986 0.4 10091219
13:00+3wsw71288100 0.5 1011874
16:00+8wsw8125524 0.7 10121975
19:00+6wsw7126519 0.3 10141069
22:00+3sw513725 0.3 1016453
26 april, mon
mon2601:00+2sw512760 0.0 1017270
04:00+1ssw412785 0.0 1017243
07:00+3ssw5137010 0.0 1017399
10:00+8sw7114995 0.0 10161319
13:00+11sw684295 0.0 10151882
16:00+12ssw673820 0.0 10142251
19:00+10s365248 0.0 1012188
22:00+5s356382 0.0 101287
27 april, tue
tue2701:00+4sw227299 0.0 101121
04:00+3ssw2275100 0.0 101027
07:00+4s267566 0.0 1009189
10:00+8wsw687194 0.0 10081007
13:00+6wnw567173 0.1 10101019
16:00+9w675186 0.4 10101681
19:00+7w475798 0.2 1009422
22:00+4sw3684100 0.4 1011124